Time,TemperatureF,DewpointF,PressureIn,WindDirection,WindDirectionDegrees,WindSpeedMPH,WindSpeedGustMPH,Humidity,HourlyPrecipIn,Conditions,Clouds,dailyrainin,SoftwareType,DateUTC
2013-01-21 00:03:00,29.9,28.1,30.57,NNW,338,0.0,1.1,93,0.00,,,0.00,WUHU216HW,2013-01-21 08:03:00,
2013-01-21 00:08:00,30.1,28.3,30.57,NNW,338,0.0,0.0,93,0.00,,,0.00,WUHU216HW,2013-01-21 08:08:00,
2013-01-21 00:13:00,30.2,28.4,30.57,NNW,338,0.0,0.0,93,0.00,,,0.00,WUHU216HW,2013-01-21 08:13:00,
2013-01-21 00:18:00,30.2,28.4,30.57,NNW,338,0.0,0.0,93,0.00,,,0.00,WUHU216HW,2013-01-21 08:18:00,
2013-01-21 00:23:00,30.2,28.4,30.57,WSW,248,0.2,0.2,93,0.00,,,0.00,WUHU216HW,2013-01-21 08:23:00,
2013-01-21 00:28:00,30.2,28.4,30.57,WSW,248,0.0,0.2,93,0.00,,,0.00,WUHU216HW,2013-01-21 08:28:00,
2013-01-21 00:33:00,30.2,28.4,30.57,NW,315,0.0,0.0,93,0.00,,,0.00,WUHU216HW,2013-01-21 08:33:00,
2013-01-21 00:38:00,30.1,28.3,30.57,NW,315,0.2,0.2,93,0.00,,,0.00,WUHU216HW,2013-01-21 08:38:00,
2013-01-21 00:43:00,29.9,28.1,30.57,NW,315,0.4,0.4,93,0.00,,,0.00,WUHU216HW,2013-01-21 08:43:00,
2013-01-21 00:48:00,29.9,28.1,30.57,NNW,338,0.0,0.7,93,0.00,,,0.00,WUHU216HW,2013-01-21 08:48:00,
2013-01-21 00:53:00,29.7,27.9,30.57,NW,315,0.9,1.6,93,0.00,,,0.00,WUHU216HW,2013-01-21 08:53:00,
2013-01-21 00:58:00,29.7,27.9,30.57,North,0,0.0,1.6,93,0.00,,,0.00,WUHU216HW,2013-01-21 08:58:00,
2013-01-21 01:03:00,29.5,27.7,30.57,North,0,0.0,0.4,93,0.00,,,0.00,WUHU216HW,2013-01-21 09:03:00,
2013-01-21 01:08:00,29.7,27.9,30.57,SSW,203,0.4,1.1,93,0.00,,,0.00,WUHU216HW,2013-01-21 09:08:00,
2013-01-21 01:13:00,29.9,28.1,30.57,SSW,203,0.4,1.1,93,0.00,,,0.00,WUHU216HW,2013-01-21 09:13:00,
2013-01-21 01:18:00,29.9,28.1,30.57,SSW,203,0.4,0.9,93,0.00,,,0.00,WUHU216HW,2013-01-21 09:18:00,
2013-01-21 01:23:00,29.7,27.9,30.57,WSW,248,0.0,0.9,93,0.00,,,0.00,WUHU216HW,2013-01-21 09:23:00,
2013-01-21 01:28:00,29.7,27.9,30.57,WSW,248,0.0,0.9,93,0.00,,,0.00,WUHU216HW,2013-01-21 09:28:00,
2013-01-21 01:33:00,29.5,27.7,30.57,WSW,248,0.0,0.9,93,0.00,,,0.00,WUHU216HW,2013-01-21 09:33:00,
2013-01-21 01:38:00,29.5,27.7,30.57,SW,225,0.2,0.2,93,0.00,,,0.00,WUHU216HW,2013-01-21 09:38:00,
2013-01-21 01:43:00,29.5,27.7,30.57,SW,225,0.0,0.2,93,0.00,,,0.00,WUHU216HW,2013-01-21 09:43:00,
2013-01-21 01:48:00,29.5,27.7,30.56,SW,225,0.0,0.0,93,0.00,,,0.00,WUHU216HW,2013-01-21 09:48:00,
2013-01-21 01:53:00,29.5,27.7,30.57,SW,225,0.0,0.0,93,0.00,,,0.00,WUHU216HW,2013-01-21 09:53:00,
2013-01-21 01:58:00,29.7,27.9,30.57,SW,225,0.0,0.0,93,0.00,,,0.00,WUHU216HW,2013-01-21 09:58:00,
2013-01-21 02:03:00,29.3,27.4,30.57,NNW,338,0.0,1.3,92,0.00,,,0.00,WUHU216HW,2013-01-21 10:03:00,
2013-01-21 02:08:00,29.2,27.4,30.58,NNW,338,0.0,1.3,93,0.00,,,0.00,WUHU216HW,2013-01-21 10:08:00,
2013-01-21 02:13:00,29.2,27.4,30.58,NNW,338,0.4,0.7,93,0.00,,,0.00,WUHU216HW,2013-01-21 10:13:00,
2013-01-21 02:18:00,29.2,27.4,30.58,NNW,338,0.0,0.7,93,0.00,,,0.00,WUHU216HW,2013-01-21 10:18:00,
2013-01-21 02:23:00,29.2,27.4,30.58,NNW,338,0.0,0.0,93,0.00,,,0.00,WUHU216HW,2013-01-21 10:23:00,
2013-01-21 02:28:00,29.2,27.4,30.58,SSW,203,0.0,0.4,93,0.00,,,0.00,WUHU216HW,2013-01-21 10:28:00,
2013-01-21 02:33:00,29.5,27.7,30.58,SSW,203,0.0,0.4,93,0.00,,,0.00,WUHU216HW,2013-01-21 10:33:00,
2013-01-21 02:38:00,29.5,27.7,30.58,SSW,203,0.0,0.0,93,0.00,,,0.00,WUHU216HW,2013-01-21 10:38:00,
2013-01-21 02:43:00,29.5,27.7,30.58,SSW,203,0.0,0.0,93,0.00,,,0.00,WUHU216HW,2013-01-21 10:43:00,
2013-01-21 02:48:00,29.7,27.9,30.58,SSW,203,0.0,0.0,93,0.00,,,0.00,WUHU216HW,2013-01-21 10:48:00,
2013-01-21 02:53:00,29.5,27.7,30.58,NW,315,0.0,0.0,93,0.00,,,0.00,WUHU216HW,2013-01-21 10:53:00,
2013-01-21 02:58:00,29.5,27.7,30.57,North,0,1.1,1.1,93,0.00,,,0.00,WUHU216HW,2013-01-21 10:58:00,
2013-01-21 03:03:00,29.5,27.7,30.57,North,0,0.0,1.1,93,0.00,,,0.00,WUHU216HW,2013-01-21 11:03:00,
2013-01-21 03:08:00,29.5,27.7,30.58,North,0,0.0,0.4,93,0.00,,,0.00,WUHU216HW,2013-01-21 11:08:00,
2013-01-21 03:13:00,29.5,27.7,30.58,North,0,0.0,0.0,93,0.00,,,0.00,WUHU216HW,2013-01-21 11:13:00,
2013-01-21 03:18:00,29.5,27.7,30.57,North,0,0.0,0.9,93,0.00,,,0.00,WUHU216HW,2013-01-21 11:18:00,
2013-01-21 03:23:00,29.3,27.5,30.57,North,0,0.0,0.9,93,0.00,,,0.00,WUHU216HW,2013-01-21 11:23:00,
2013-01-21 03:28:00,29.5,27.7,30.57,North,0,0.0,0.0,93,0.00,,,0.00,WUHU216HW,2013-01-21 11:28:00,
2013-01-21 03:33:00,29.7,27.9,30.57,North,0,0.0,0.0,93,0.00,,,0.00,WUHU216HW,2013-01-21 11:33:00,
2013-01-21 03:38:00,29.7,27.9,30.57,North,0,0.0,0.0,93,0.00,,,0.00,WUHU216HW,2013-01-21 11:38:00,
2013-01-21 03:43:00,29.9,28.1,30.57,North,0,0.0,0.0,93,0.00,,,0.00,WUHU216HW,2013-01-21 11:43:00,
2013-01-21 03:48:00,29.9,28.1,30.57,North,0,0.0,0.0,93,0.00,,,0.00,WUHU216HW,2013-01-21 11:48:00,
2013-01-21 03:53:00,29.9,28.1,30.57,NNW,338,0.0,0.0,93,0.00,,,0.00,WUHU216HW,2013-01-21 11:53:00,
2013-01-21 03:58:00,30.1,28.3,30.56,NNW,338,0.0,0.0,93,0.00,,,0.00,WUHU216HW,2013-01-21 11:58:00,
2013-01-21 04:03:00,30.1,28.3,30.57,NNW,338,0.0,0.0,93,0.00,,,0.00,WUHU216HW,2013-01-21 12:03:00,
2013-01-21 04:08:00,29.9,28.1,30.56,NNW,338,0.0,0.0,93,0.00,,,0.00,WUHU216HW,2013-01-21 12:08:00,
2013-01-21 04:13:00,29.9,28.1,30.56,NNW,338,0.0,0.4,93,0.00,,,0.00,WUHU216HW,2013-01-21 12:13:00,
2013-01-21 04:18:00,29.9,28.1,30.56,NNW,338,0.0,0.4,93,0.00,,,0.00,WUHU216HW,2013-01-21 12:18:00,
2013-01-21 04:23:00,29.9,28.1,30.56,SSE,158,0.0,0.9,93,0.00,,,0.00,WUHU216HW,2013-01-21 12:23:00,
2013-01-21 04:28:00,30.2,28.4,30.57,SSE,158,0.0,0.9,93,0.00,,,0.00,WUHU216HW,2013-01-21 12:28:00,
2013-01-21 04:33:00,30.2,28.4,30.56,SSE,158,0.0,0.0,93,0.00,,,0.00,WUHU216HW,2013-01-21 12:33:00,
2013-01-21 04:38:00,30.4,28.6,30.56,SSE,158,0.0,0.0,93,0.00,,,0.00,WUHU216HW,2013-01-21 12:38:00,
2013-01-21 04:43:00,30.6,28.8,30.56,SSE,158,0.0,0.4,93,0.00,,,0.00,WUHU216HW,2013-01-21 12:43:00,
2013-01-21 04:48:00,30.6,28.8,30.56,SSE,158,0.0,0.4,93,0.00,,,0.00,WUHU216HW,2013-01-21 12:48:00,
2013-01-21 04:53:00,30.4,28.6,30.55,SSE,158,0.0,0.0,93,0.00,,,0.00,WUHU216HW,2013-01-21 12:53:00,
2013-01-21 04:58:00,30.4,28.6,30.55,SSE,158,0.0,0.0,93,0.00,,,0.00,WUHU216HW,2013-01-21 12:58:00,
2013-01-21 05:03:00,30.6,28.8,30.55,SSE,158,0.4,0.4,93,0.00,,,0.00,WUHU216HW,2013-01-21 13:03:00,
2013-01-21 05:08:00,30.6,28.8,30.55,SSE,158,0.0,0.7,93,0.00,,,0.00,WUHU216HW,2013-01-21 13:08:00,
2013-01-21 05:13:00,30.6,28.8,30.55,SSW,203,0.0,0.7,93,0.00,,,0.00,WUHU216HW,2013-01-21 13:13:00,
2013-01-21 05:18:00,30.6,28.8,30.55,SSW,203,0.0,0.4,93,0.00,,,0.00,WUHU216HW,2013-01-21 13:18:00,
2013-01-21 05:23:00,30.6,28.8,30.55,SSW,203,0.0,0.0,93,0.00,,,0.00,WUHU216HW,2013-01-21 13:23:00,
2013-01-21 05:28:00,30.6,28.8,30.55,SSW,203,0.0,0.4,93,0.00,,,0.00,WUHU216HW,2013-01-21 13:28:00,
2013-01-21 05:33:00,30.8,29.0,30.55,SSW,203,0.0,0.4,93,0.00,,,0.00,WUHU216HW,2013-01-21 13:33:00,
2013-01-21 05:38:00,30.6,28.8,30.55,SSW,203,0.0,0.0,93,0.00,,,0.00,WUHU216HW,2013-01-21 13:38:00,
2013-01-21 05:43:00,30.6,28.8,30.54,NW,315,0.0,0.0,93,0.00,,,0.00,WUHU216HW,2013-01-21 13:43:00,
2013-01-21 05:48:00,30.6,28.8,30.54,NW,315,0.0,0.0,93,0.00,,,0.00,WUHU216HW,2013-01-21 13:48:00,
2013-01-21 05:53:00,30.6,28.8,30.54,NW,315,0.0,0.0,93,0.00,,,0.00,WUHU216HW,2013-01-21 13:53:00,
2013-01-21 05:58:00,30.8,29.0,30.54,NW,315,0.0,0.0,93,0.00,,,0.00,WUHU216HW,2013-01-21 13:58:00,
2013-01-21 06:03:00,30.8,29.0,30.54,West,270,0.0,0.4,93,0.00,,,0.00,WUHU216HW,2013-01-21 14:03:00,
2013-01-21 06:08:00,30.8,29.0,30.53,West,270,0.0,0.4,93,0.00,,,0.00,WUHU216HW,2013-01-21 14:08:00,
2013-01-21 06:13:00,31.0,29.2,30.53,SW,225,0.4,0.4,93,0.00,,,0.00,WUHU216HW,2013-01-21 14:13:00,
2013-01-21 06:18:00,31.0,29.2,30.53,South,180,0.9,0.9,93,0.00,,,0.00,WUHU216HW,2013-01-21 14:18:00,
2013-01-21 06:23:00,31.0,29.2,30.52,South,180,0.0,0.9,93,0.00,,,0.00,WUHU216HW,2013-01-21 14:23:00,
2013-01-21 06:28:00,30.8,29.0,30.52,NW,315,0.0,0.7,93,0.00,,,0.00,WUHU216HW,2013-01-21 14:28:00,
2013-01-21 06:33:00,31.0,29.2,30.52,NW,315,0.0,0.0,93,0.00,,,0.00,WUHU216HW,2013-01-21 14:33:00,
2013-01-21 06:38:00,31.0,29.2,30.52,NW,315,0.4,0.4,93,0.00,,,0.00,WUHU216HW,2013-01-21 14:38:00,
2013-01-21 06:43:00,31.0,29.2,30.51,NW,315,0.0,0.4,93,0.00,,,0.00,WUHU216HW,2013-01-21 14:43:00,
2013-01-21 06:48:00,31.0,29.2,30.52,SW,225,0.2,0.7,93,0.00,,,0.00,WUHU216HW,2013-01-21 14:48:00,
2013-01-21 06:53:00,30.8,29.0,30.52,SSW,203,0.4,0.7,93,0.00,,,0.00,WUHU216HW,2013-01-21 14:53:00,
2013-01-21 06:58:00,30.8,29.0,30.52,South,180,0.4,0.9,93,0.00,,,0.00,WUHU216HW,2013-01-21 14:58:00,
2013-01-21 07:03:00,30.8,29.0,30.52,South,180,0.0,0.9,93,0.00,,,0.00,WUHU216HW,2013-01-21 15:03:00,
2013-01-21 07:08:00,31.0,29.2,30.52,South,180,0.0,0.7,93,0.00,,,0.00,WUHU216HW,2013-01-21 15:08:00,
2013-01-21 07:13:00,30.8,29.0,30.52,South,180,0.0,0.2,93,0.00,,,0.00,WUHU216HW,2013-01-21 15:13:00,
2013-01-21 07:18:00,30.8,29.0,30.52,South,180,0.0,0.4,93,0.00,,,0.00,WUHU216HW,2013-01-21 15:18:00,
2013-01-21 07:23:00,30.8,29.0,30.51,South,180,0.0,0.4,93,0.00,,,0.00,WUHU216HW,2013-01-21 15:23:00,
2013-01-21 07:28:00,30.8,29.0,30.51,South,180,0.0,0.0,93,0.00,,,0.00,WUHU216HW,2013-01-21 15:28:00,
2013-01-21 07:33:00,30.8,29.0,30.51,South,180,0.0,0.0,93,0.00,,,0.00,WUHU216HW,2013-01-21 15:33:00,
2013-01-21 07:38:00,30.8,29.0,30.51,South,180,0.0,0.0,93,0.00,,,0.00,WUHU216HW,2013-01-21 15:38:00,
2013-01-21 07:43:00,30.8,29.0,30.51,South,180,0.0,0.0,93,0.00,,,0.00,WUHU216HW,2013-01-21 15:43:00,
2013-01-21 07:48:00,30.8,29.0,30.51,South,180,0.0,0.0,93,0.00,,,0.00,WUHU216HW,2013-01-21 15:48:00,
2013-01-21 07:53:00,30.8,29.0,30.50,South,180,0.0,0.0,93,0.00,,,0.00,WUHU216HW,2013-01-21 15:53:00,
2013-01-21 07:58:00,30.6,28.8,30.51,SSE,158,0.0,0.7,93,0.00,,,0.00,WUHU216HW,2013-01-21 15:58:00,
2013-01-21 08:03:00,30.6,28.8,30.52,SSE,158,0.0,0.7,93,0.00,,,0.00,WUHU216HW,2013-01-21 16:03:00,
2013-01-21 08:08:00,30.6,28.8,30.52,SSE,158,0.0,0.0,93,0.00,,,0.00,WUHU216HW,2013-01-21 16:08:00,
2013-01-21 08:13:00,30.8,29.0,30.52,SSE,158,0.0,0.0,93,0.00,,,0.00,WUHU216HW,2013-01-21 16:13:00,
2013-01-21 08:18:00,31.0,29.2,30.52,SSE,158,0.0,0.0,93,0.00,,,0.00,WUHU216HW,2013-01-21 16:18:00,
2013-01-21 08:23:00,31.0,29.2,30.52,SSE,158,0.0,0.0,93,0.00,,,0.00,WUHU216HW,2013-01-21 16:23:00,
2013-01-21 08:28:00,31.1,29.3,30.52,SSE,158,0.0,0.0,93,0.00,,,0.00,WUHU216HW,2013-01-21 16:28:00,
2013-01-21 08:33:00,31.1,29.3,30.52,SSE,158,0.0,0.4,93,0.00,,,0.00,WUHU216HW,2013-01-21 16:33:00,
2013-01-21 08:38:00,31.3,29.5,30.52,SSW,203,0.0,0.4,93,0.00,,,0.00,WUHU216HW,2013-01-21 16:38:00,
2013-01-21 08:43:00,31.3,29.5,30.53,SSW,203,0.0,0.0,93,0.00,,,0.00,WUHU216HW,2013-01-21 16:43:00,
2013-01-21 08:48:00,31.3,29.5,30.52,SSW,203,0.0,0.0,93,0.00,,,0.00,WUHU216HW,2013-01-21 16:48:00,
2013-01-21 08:53:00,31.5,29.7,30.52,SSW,203,0.0,0.0,93,0.00,,,0.00,WUHU216HW,2013-01-21 16:53:00,
2013-01-21 08:58:00,31.3,29.5,30.52,South,180,0.0,0.7,93,0.00,,,0.00,WUHU216HW,2013-01-21 16:58:00,
2013-01-21 09:03:00,31.3,29.5,30.52,South,180,0.2,0.7,93,0.00,,,0.00,WUHU216HW,2013-01-21 17:03:00,
2013-01-21 09:08:00,31.3,29.5,30.53,South,180,0.0,0.7,93,0.00,,,0.00,WUHU216HW,2013-01-21 17:08:00,
2013-01-21 09:13:00,31.3,29.5,30.53,South,180,0.0,0.2,93,0.00,,,0.00,WUHU216HW,2013-01-21 17:13:00,
2013-01-21 09:18:00,31.5,29.7,30.53,SSW,203,0.4,0.4,93,0.00,,,0.00,WUHU216HW,2013-01-21 17:18:00,
2013-01-21 09:23:00,31.5,29.7,30.53,South,180,0.4,0.7,93,0.00,,,0.00,WUHU216HW,2013-01-21 17:23:00,
2013-01-21 09:28:00,31.5,29.7,30.54,SSE,158,0.2,1.3,93,0.00,,,0.00,WUHU216HW,2013-01-21 17:28:00,
2013-01-21 09:33:00,31.5,29.7,30.54,SSW,203,0.0,1.3,93,0.00,,,0.00,WUHU216HW,2013-01-21 17:33:00,
2013-01-21 09:38:00,31.5,29.7,30.54,NW,315,0.0,1.1,93,0.00,,,0.00,WUHU216HW,2013-01-21 17:38:00,
2013-01-21 09:43:00,31.5,29.7,30.54,WSW,248,0.0,0.9,93,0.00,,,0.00,WUHU216HW,2013-01-21 17:43:00,
2013-01-21 09:48:00,31.7,29.9,30.54,WSW,248,0.0,0.2,93,0.00,,,0.00,WUHU216HW,2013-01-21 17:48:00,
2013-01-21 09:53:00,31.5,29.7,30.54,WSW,248,0.0,0.0,93,0.00,,,0.00,WUHU216HW,2013-01-21 17:53:00,
2013-01-21 09:58:00,31.5,29.7,30.54,NNW,338,0.4,0.4,93,0.00,,,0.00,WUHU216HW,2013-01-21 17:58:00,
2013-01-21 10:03:00,31.5,29.7,30.54,NNW,338,0.0,0.4,93,0.00,,,0.00,WUHU216HW,2013-01-21 18:03:00,
2013-01-21 10:08:00,31.3,29.5,30.54,NNW,338,0.0,0.4,93,0.00,,,0.00,WUHU216HW,2013-01-21 18:08:00,
2013-01-21 10:13:00,31.5,29.7,30.54,North,0,0.0,1.1,93,0.00,,,0.00,WUHU216HW,2013-01-21 18:13:00,
2013-01-21 10:18:00,31.5,29.7,30.54,North,0,0.0,1.1,93,0.00,,,0.00,WUHU216HW,2013-01-21 18:18:00,
2013-01-21 10:23:00,31.7,29.9,30.54,North,0,0.0,0.0,93,0.00,,,0.00,WUHU216HW,2013-01-21 18:23:00,
2013-01-21 10:28:00,31.7,29.9,30.54,WSW,248,0.7,0.9,93,0.00,,,0.00,WUHU216HW,2013-01-21 18:28:00,
2013-01-21 10:33:00,31.9,30.1,30.54,SSW,203,1.1,1.8,93,0.00,,,0.00,WUHU216HW,2013-01-21 18:33:00,
2013-01-21 10:38:00,31.9,30.1,30.54,SSE,158,0.7,1.8,93,0.00,,,0.00,WUHU216HW,2013-01-21 18:38:00,
2013-01-21 10:43:00,32.0,30.2,30.54,SSW,203,1.1,1.8,93,0.00,,,0.00,WUHU216HW,2013-01-21 18:43:00,
2013-01-21 10:48:00,32.0,30.2,30.54,SSW,203,0.0,1.3,93,0.00,,,0.00,WUHU216HW,2013-01-21 18:48:00,
2013-01-21 10:53:00,32.0,30.2,30.54,SW,225,0.4,1.3,93,0.00,,,0.00,WUHU216HW,2013-01-21 18:53:00,
2013-01-21 10:58:00,32.2,30.4,30.54,SSW,203,0.2,0.4,93,0.00,,,0.00,WUHU216HW,2013-01-21 18:58:00,
2013-01-21 11:03:00,32.2,30.4,30.54,SSE,158,0.0,1.3,93,0.00,,,0.00,WUHU216HW,2013-01-21 19:03:00,
2013-01-21 11:08:00,32.4,30.6,30.54,SSE,158,1.1,1.3,93,0.00,,,0.00,WUHU216HW,2013-01-21 19:08:00,
2013-01-21 11:13:00,32.6,30.8,30.54,SSE,158,0.0,1.1,93,0.00,,,0.00,WUHU216HW,2013-01-21 19:13:00,
2013-01-21 11:18:00,32.6,30.8,30.54,SSW,203,0.4,0.4,93,0.00,,,0.00,WUHU216HW,2013-01-21 19:18:00,
2013-01-21 11:23:00,32.8,31.0,30.54,NNW,338,0.0,0.4,93,0.00,,,0.00,WUHU216HW,2013-01-21 19:23:00,
2013-01-21 11:28:00,32.6,30.8,30.54,NNW,338,0.4,0.4,93,0.00,,,0.00,WUHU216HW,2013-01-21 19:28:00,
2013-01-21 11:33:00,32.6,30.8,30.53,NNW,338,0.0,0.4,93,0.00,,,0.00,WUHU216HW,2013-01-21 19:33:00,
2013-01-21 11:38:00,32.6,30.8,30.53,NNW,338,0.0,0.2,93,0.00,,,0.00,WUHU216HW,2013-01-21 19:38:00,
2013-01-21 11:43:00,32.8,31.0,30.53,NNW,338,0.0,0.0,93,0.00,,,0.00,WUHU216HW,2013-01-21 19:43:00,
2013-01-21 11:48:00,32.9,31.2,30.53,South,180,0.0,0.9,93,0.00,,,0.00,WUHU216HW,2013-01-21 19:48:00,
2013-01-21 11:53:00,33.1,31.3,30.53,SSE,158,0.0,1.1,93,0.00,,,0.00,WUHU216HW,2013-01-21 19:53:00,
2013-01-21 11:58:00,33.1,31.3,30.53,WNW,293,0.0,1.1,93,0.00,,,0.00,WUHU216HW,2013-01-21 19:58:00,
2013-01-21 12:03:00,33.1,31.3,30.53,WNW,293,0.2,0.2,93,0.00,,,0.00,WUHU216HW,2013-01-21 20:03:00,
2013-01-21 12:08:00,33.1,31.3,30.53,West,270,0.0,0.2,93,0.00,,,0.00,WUHU216HW,2013-01-21 20:08:00,
2013-01-21 12:13:00,33.1,31.3,30.53,West,270,0.0,0.0,93,0.00,,,0.00,WUHU216HW,2013-01-21 20:13:00,
2013-01-21 12:18:00,33.5,31.6,30.52,NW,315,0.0,0.0,93,0.00,,,0.00,WUHU216HW,2013-01-21 20:18:00,
2013-01-21 12:23:00,33.5,31.6,30.52,NNW,338,0.2,0.4,93,0.00,,,0.00,WUHU216HW,2013-01-21 20:23:00,
2013-01-21 12:28:00,33.5,31.6,30.52,NNW,338,0.0,0.4,93,0.00,,,0.00,WUHU216HW,2013-01-21 20:28:00,
2013-01-21 12:33:00,33.5,31.6,30.52,SSW,203,0.0,0.7,93,0.00,,,0.00,WUHU216HW,2013-01-21 20:33:00,
2013-01-21 12:38:00,33.7,32.0,30.52,SSW,203,0.0,0.7,94,0.00,,,0.00,WUHU216HW,2013-01-21 20:38:00,
2013-01-21 12:43:00,33.8,32.2,30.52,NNW,338,0.4,0.4,94,0.00,,,0.00,WUHU216HW,2013-01-21 20:43:00,
2013-01-21 12:48:00,33.8,32.2,30.52,North,0,0.9,0.9,94,0.00,,,0.00,WUHU216HW,2013-01-21 20:48:00,
2013-01-21 12:53:00,33.8,32.2,30.52,NNW,338,0.0,1.1,94,0.00,,,0.00,WUHU216HW,2013-01-21 20:53:00,
2013-01-21 12:58:00,33.8,32.2,30.51,NNW,338,0.0,1.1,94,0.00,,,0.00,WUHU216HW,2013-01-21 20:58:00,
2013-01-21 13:03:00,33.8,32.2,30.51,North,0,1.8,1.8,94,0.00,,,0.00,WUHU216HW,2013-01-21 21:03:00,
2013-01-21 13:08:00,33.8,32.2,30.50,North,0,0.0,1.8,94,0.00,,,0.00,WUHU216HW,2013-01-21 21:08:00,
2013-01-21 13:13:00,33.8,32.2,30.51,North,0,0.0,0.2,94,0.00,,,0.00,WUHU216HW,2013-01-21 21:13:00,
2013-01-21 13:18:00,33.8,32.2,30.50,North,0,0.0,0.0,94,0.00,,,0.00,WUHU216HW,2013-01-21 21:18:00,
2013-01-21 13:23:00,34.2,32.6,30.50,SSW,203,0.0,0.0,94,0.00,,,0.00,WUHU216HW,2013-01-21 21:23:00,
2013-01-21 13:28:00,34.2,32.6,30.50,SSW,203,0.0,0.4,94,0.00,,,0.00,WUHU216HW,2013-01-21 21:28:00,
2013-01-21 13:33:00,34.4,32.8,30.50,SSW,203,0.0,0.4,94,0.00,,,0.00,WUHU216HW,2013-01-21 21:33:00,
2013-01-21 13:38:00,34.6,32.9,30.50,WNW,293,0.0,0.0,94,0.00,,,0.00,WUHU216HW,2013-01-21 21:38:00,
2013-01-21 13:43:00,34.4,32.8,30.50,West,270,0.2,0.2,94,0.00,,,0.00,WUHU216HW,2013-01-21 21:43:00,
2013-01-21 13:48:00,34.4,32.8,30.50,SW,225,0.9,1.1,94,0.00,,,0.00,WUHU216HW,2013-01-21 21:48:00,
2013-01-21 13:53:00,34.6,32.9,30.49,SSW,203,0.0,1.1,94,0.00,,,0.00,WUHU216HW,2013-01-21 21:53:00,
2013-01-21 13:58:00,34.6,32.9,30.49,WSW,248,0.0,0.7,94,0.00,,,0.00,WUHU216HW,2013-01-21 21:58:00,
2013-01-21 14:03:00,34.7,33.1,30.49,WSW,248,0.0,0.0,94,0.00,,,0.00,WUHU216HW,2013-01-21 22:03:00,
2013-01-21 14:08:00,34.7,33.1,30.49,WNW,293,0.0,0.0,94,0.00,,,0.00,WUHU216HW,2013-01-21 22:08:00,
2013-01-21 14:13:00,34.7,33.1,30.49,SW,225,0.0,0.4,94,0.00,,,0.00,WUHU216HW,2013-01-21 22:13:00,
2013-01-21 14:18:00,34.9,33.3,30.48,North,0,0.0,0.4,94,0.00,,,0.00,WUHU216HW,2013-01-21 22:18:00,
2013-01-21 14:23:00,34.9,33.3,30.48,WNW,293,0.4,0.4,94,0.00,,,0.00,WUHU216HW,2013-01-21 22:23:00,
2013-01-21 14:28:00,34.9,33.3,30.48,South,180,0.9,0.9,94,0.00,,,0.00,WUHU216HW,2013-01-21 22:28:00,
2013-01-21 14:33:00,34.9,33.3,30.48,SSE,158,0.0,1.1,94,0.00,,,0.00,WUHU216HW,2013-01-21 22:33:00,
2013-01-21 14:38:00,34.7,33.1,30.48,SSE,158,0.0,1.1,94,0.00,,,0.00,WUHU216HW,2013-01-21 22:38:00,
2013-01-21 14:43:00,34.7,32.9,30.48,SSE,158,0.0,0.4,93,0.00,,,0.00,WUHU216HW,2013-01-21 22:43:00,
2013-01-21 14:48:00,34.7,32.9,30.48,SSE,158,0.0,0.0,93,0.00,,,0.00,WUHU216HW,2013-01-21 22:48:00,
2013-01-21 14:53:00,34.9,33.3,30.48,SSE,158,0.0,0.0,94,0.00,,,0.00,WUHU216HW,2013-01-21 22:53:00,
2013-01-21 14:58:00,34.9,33.0,30.47,SSE,158,0.0,0.0,93,0.00,,,0.00,WUHU216HW,2013-01-21 22:58:00,
2013-01-21 15:03:00,34.9,33.0,30.47,South,180,0.0,0.0,93,0.00,,,0.00,WUHU216HW,2013-01-21 23:03:00,
2013-01-21 15:08:00,34.9,33.0,30.47,South,180,0.0,0.0,93,0.00,,,0.00,WUHU216HW,2013-01-21 23:08:00,
2013-01-21 15:13:00,34.9,33.0,30.46,South,180,0.0,0.0,93,0.00,,,0.00,WUHU216HW,2013-01-21 23:13:00,
2013-01-21 15:18:00,34.9,33.0,30.46,NNW,338,0.0,0.0,93,0.00,,,0.00,WUHU216HW,2013-01-21 23:18:00,
2013-01-21 15:23:00,34.6,32.7,30.46,NNW,338,0.0,1.3,93,0.00,,,0.00,WUHU216HW,2013-01-21 23:23:00,
2013-01-21 15:28:00,34.4,32.5,30.46,West,270,0.0,1.3,93,0.00,,,0.00,WUHU216HW,2013-01-21 23:28:00,
2013-01-21 15:33:00,34.4,32.5,30.46,West,270,0.0,1.1,93,0.00,,,0.00,WUHU216HW,2013-01-21 23:33:00,
2013-01-21 15:38:00,34.6,32.7,30.46,SW,225,0.2,0.2,93,0.00,,,0.00,WUHU216HW,2013-01-21 23:38:00,
2013-01-21 15:43:00,34.7,32.9,30.46,South,180,0.9,0.9,93,0.00,,,0.00,WUHU216HW,2013-01-21 23:43:00,
2013-01-21 15:48:00,34.9,33.0,30.46,South,180,0.0,0.9,93,0.00,,,0.00,WUHU216HW,2013-01-21 23:48:00,
2013-01-21 15:53:00,34.7,32.9,30.46,South,180,0.0,0.4,93,0.00,,,0.00,WUHU216HW,2013-01-21 23:53:00,
2013-01-21 15:58:00,34.7,32.9,30.46,South,180,0.0,0.0,93,0.00,,,0.00,WUHU216HW,2013-01-21 23:58:00,
2013-01-21 16:03:00,34.6,32.7,30.46,SSW,203,1.1,1.3,93,0.00,,,0.00,WUHU216HW,2013-01-22 00:03:00,
2013-01-21 16:08:00,34.6,32.7,30.46,SSW,203,0.0,1.3,93,0.00,,,0.00,WUHU216HW,2013-01-22 00:08:00,
2013-01-21 16:13:00,34.6,32.7,30.46,SW,225,0.0,0.9,93,0.00,,,0.00,WUHU216HW,2013-01-22 00:13:00,
2013-01-21 16:18:00,34.4,32.5,30.46,NNW,338,0.0,0.0,93,0.00,,,0.00,WUHU216HW,2013-01-22 00:18:00,
2013-01-21 16:23:00,34.2,32.3,30.46,NNW,338,0.0,0.4,93,0.00,,,0.00,WUHU216HW,2013-01-22 00:23:00,
2013-01-21 16:28:00,34.2,32.3,30.46,NNW,338,0.0,0.4,93,0.00,,,0.00,WUHU216HW,2013-01-22 00:28:00,
2013-01-21 16:33:00,34.0,32.1,30.47,SSE,158,1.3,1.3,93,0.00,,,0.00,WUHU216HW,2013-01-22 00:33:00,
2013-01-21 16:38:00,34.0,32.1,30.47,SSE,158,0.4,1.3,93,0.00,,,0.00,WUHU216HW,2013-01-22 00:38:00,
2013-01-21 16:43:00,34.0,32.1,30.47,SSE,158,0.0,0.4,93,0.00,,,0.00,WUHU216HW,2013-01-22 00:43:00,
2013-01-21 16:48:00,34.0,32.1,30.47,SSE,158,0.0,0.0,93,0.00,,,0.00,WUHU216HW,2013-01-22 00:48:00,
2013-01-21 16:53:00,33.8,32.0,30.47,SSE,158,0.0,0.0,93,0.00,,,0.00,WUHU216HW,2013-01-22 00:53:00,
2013-01-21 16:58:00,33.8,32.0,30.47,SSE,158,0.0,0.0,93,0.00,,,0.00,WUHU216HW,2013-01-22 00:58:00,
2013-01-21 17:03:00,33.8,32.2,30.47,North,0,0.0,0.9,94,0.00,,,0.00,WUHU216HW,2013-01-22 01:03:00,
2013-01-21 17:08:00,33.7,31.8,30.47,North,0,0.0,0.9,93,0.00,,,0.00,WUHU216HW,2013-01-22 01:08:00,
2013-01-21 17:13:00,33.7,31.8,30.47,North,0,0.0,0.0,93,0.00,,,0.00,WUHU216HW,2013-01-22 01:13:00,
2013-01-21 17:18:00,33.7,32.0,30.47,WSW,248,0.0,0.4,94,0.00,,,0.00,WUHU216HW,2013-01-22 01:18:00,
2013-01-21 17:23:00,33.8,32.2,30.47,WSW,248,0.0,0.4,94,0.00,,,0.00,WUHU216HW,2013-01-22 01:23:00,
2013-01-21 17:28:00,33.8,32.2,30.47,West,270,0.0,0.0,94,0.00,,,0.00,WUHU216HW,2013-01-22 01:28:00,
2013-01-21 17:33:00,33.7,32.0,30.47,WNW,293,0.0,0.7,94,0.00,,,0.00,WUHU216HW,2013-01-22 01:33:00,
2013-01-21 17:38:00,33.7,32.0,30.47,WNW,293,0.0,0.7,94,0.00,,,0.00,WUHU216HW,2013-01-22 01:38:00,
2013-01-21 17:43:00,33.5,31.6,30.47,WNW,293,0.0,0.4,93,0.00,,,0.00,WUHU216HW,2013-01-22 01:43:00,
2013-01-21 17:48:00,33.5,31.6,30.46,WNW,293,0.0,0.4,93,0.00,,,0.00,WUHU216HW,2013-01-22 01:48:00,
2013-01-21 17:53:00,33.7,31.8,30.46,SSW,203,0.0,1.3,93,0.00,,,0.00,WUHU216HW,2013-01-22 01:53:00,
2013-01-21 17:58:00,33.7,32.0,30.46,SW,225,0.4,2.0,94,0.00,,,0.00,WUHU216HW,2013-01-22 01:58:00,
2013-01-21 18:03:00,33.7,32.0,30.46,SW,225,0.0,2.0,94,0.00,,,0.00,WUHU216HW,2013-01-22 02:03:00,
2013-01-21 18:08:00,33.7,32.0,30.46,SSW,203,0.2,1.3,94,0.00,,,0.00,WUHU216HW,2013-01-22 02:08:00,
2013-01-21 18:13:00,33.7,31.8,30.45,NW,315,0.2,0.9,93,0.00,,,0.00,WUHU216HW,2013-01-22 02:13:00,
2013-01-21 18:18:00,33.5,31.6,30.45,NW,315,0.0,0.4,93,0.00,,,0.00,WUHU216HW,2013-01-22 02:18:00,
2013-01-21 18:23:00,33.5,31.6,30.45,NNW,338,0.0,0.0,93,0.00,,,0.00,WUHU216HW,2013-01-22 02:23:00,
2013-01-21 18:28:00,33.3,31.4,30.45,NW,315,0.0,0.4,93,0.00,,,0.00,WUHU216HW,2013-01-22 02:28:00,
2013-01-21 18:33:00,33.1,31.3,30.45,WSW,248,0.4,0.4,93,0.00,,,0.00,WUHU216HW,2013-01-22 02:33:00,
2013-01-21 18:38:00,32.9,31.2,30.45,SSW,203,0.0,1.6,93,0.00,,,0.00,WUHU216HW,2013-01-22 02:38:00,
2013-01-21 18:43:00,32.8,31.0,30.45,SSW,203,0.0,1.6,93,0.00,,,0.00,WUHU216HW,2013-01-22 02:43:00,
2013-01-21 18:48:00,32.9,31.2,30.45,SSW,203,0.0,0.4,93,0.00,,,0.00,WUHU216HW,2013-01-22 02:48:00,
2013-01-21 18:53:00,33.1,31.3,30.45,SSW,203,0.0,0.4,93,0.00,,,0.00,WUHU216HW,2013-01-22 02:53:00,
2013-01-21 18:58:00,33.1,31.3,30.45,SW,225,0.0,0.4,93,0.00,,,0.00,WUHU216HW,2013-01-22 02:58:00,
2013-01-21 19:03:00,33.1,31.3,30.45,SW,225,0.0,0.4,93,0.00,,,0.00,WUHU216HW,2013-01-22 03:03:00,
2013-01-21 19:08:00,33.1,31.3,30.45,SW,225,0.0,0.0,93,0.00,,,0.00,WUHU216HW,2013-01-22 03:08:00,
2013-01-21 19:13:00,33.1,31.3,30.45,SW,225,0.0,0.0,93,0.00,,,0.00,WUHU216HW,2013-01-22 03:13:00,
2013-01-21 19:18:00,33.1,31.3,30.45,SSE,158,0.0,0.0,93,0.00,,,0.00,WUHU216HW,2013-01-22 03:18:00,
2013-01-21 19:23:00,33.3,31.4,30.45,South,180,1.3,1.3,93,0.00,,,0.00,WUHU216HW,2013-01-22 03:23:00,
2013-01-21 19:28:00,33.5,31.6,30.45,SSW,203,0.0,1.3,93,0.00,,,0.00,WUHU216HW,2013-01-22 03:28:00,
2013-01-21 19:33:00,33.3,31.4,30.45,SSW,203,0.0,0.4,93,0.00,,,0.00,WUHU216HW,2013-01-22 03:33:00,
2013-01-21 19:38:00,33.3,31.4,30.45,SSW,203,0.0,0.0,93,0.00,,,0.00,WUHU216HW,2013-01-22 03:38:00,
2013-01-21 19:43:00,33.5,31.6,30.45,SW,225,0.0,1.1,93,0.00,,,0.00,WUHU216HW,2013-01-22 03:43:00,
2013-01-21 19:48:00,33.3,31.4,30.46,SW,225,0.0,1.1,93,0.00,,,0.00,WUHU216HW,2013-01-22 03:48:00,
2013-01-21 19:53:00,33.1,31.3,30.46,SW,225,0.0,0.2,93,0.00,,,0.00,WUHU216HW,2013-01-22 03:53:00,
2013-01-21 19:58:00,33.3,31.4,30.46,SW,225,0.0,0.0,93,0.00,,,0.00,WUHU216HW,2013-01-22 03:58:00,
2013-01-21 20:03:00,33.3,31.4,30.46,SW,225,0.0,0.0,93,0.00,,,0.00,WUHU216HW,2013-01-22 04:03:00,
2013-01-21 20:08:00,33.3,31.4,30.46,SW,225,0.0,0.0,93,0.00,,,0.00,WUHU216HW,2013-01-22 04:08:00,
2013-01-21 20:13:00,33.3,31.4,30.46,SW,225,0.0,0.2,93,0.00,,,0.00,WUHU216HW,2013-01-22 04:13:00,
2013-01-21 20:18:00,33.5,31.6,30.46,SW,225,0.0,0.2,93,0.00,,,0.00,WUHU216HW,2013-01-22 04:18:00,
2013-01-21 20:23:00,33.5,31.6,30.46,SW,225,0.0,0.0,93,0.00,,,0.00,WUHU216HW,2013-01-22 04:23:00,
2013-01-21 20:28:00,33.7,32.0,30.47,SSE,158,0.0,0.4,94,0.00,,,0.00,WUHU216HW,2013-01-22 04:28:00,
2013-01-21 20:33:00,33.7,32.0,30.46,South,180,0.0,0.4,94,0.00,,,0.00,WUHU216HW,2013-01-22 04:33:00,
2013-01-21 20:38:00,33.7,32.0,30.46,South,180,0.0,0.4,94,0.00,,,0.00,WUHU216HW,2013-01-22 04:38:00,
2013-01-21 20:43:00,33.7,32.0,30.46,SSW,203,0.4,1.1,94,0.00,,,0.00,WUHU216HW,2013-01-22 04:43:00,
2013-01-21 20:48:00,33.7,31.8,30.46,SSW,203,0.0,1.1,93,0.00,,,0.00,WUHU216HW,2013-01-22 04:48:00,
2013-01-21 20:53:00,33.5,31.6,30.47,SSW,203,0.0,0.0,93,0.00,,,0.00,WUHU216HW,2013-01-22 04:53:00,
2013-01-21 20:58:00,33.5,31.6,30.46,SSW,203,0.0,0.0,93,0.00,,,0.00,WUHU216HW,2013-01-22 04:58:00,
2013-01-21 21:00:00,33.5,31.6,30.47,WSW,248,0.9,0.9,93,0.00,,,0.00,WUHU216HW,2013-01-22 05:00:00,
2013-01-21 21:01:00,33.5,31.6,30.47,WSW,248,0.0,0.9,93,0.00,,,0.00,WUHU216HW,2013-01-22 05:01:00,
2013-01-21 21:06:00,33.5,31.6,30.47,WSW,248,0.0,0.9,93,0.00,,,0.00,WUHU216HW,2013-01-22 05:06:00,
2013-01-21 21:11:00,33.5,31.6,30.47,WSW,248,0.0,0.0,93,0.00,,,0.00,WUHU216HW,2013-01-22 05:11:00,
2013-01-21 21:16:00,33.5,31.6,30.47,WSW,248,0.0,0.0,93,0.00,,,0.00,WUHU216HW,2013-01-22 05:16:00,
2013-01-21 21:21:00,33.5,31.6,30.47,SSW,203,0.4,0.4,93,0.00,,,0.00,WUHU216HW,2013-01-22 05:21:00,
2013-01-21 21:26:00,33.5,31.6,30.47,South,180,0.0,0.4,93,0.00,,,0.00,WUHU216HW,2013-01-22 05:26:00,
2013-01-21 21:31:00,33.5,31.6,30.47,South,180,0.0,0.2,93,0.00,,,0.00,WUHU216HW,2013-01-22 05:31:00,
2013-01-21 21:36:00,33.5,31.6,30.46,South,180,0.0,0.0,93,0.00,,,0.00,WUHU216HW,2013-01-22 05:36:00,
2013-01-21 21:41:00,33.5,31.6,30.46,WNW,293,0.9,0.9,93,0.00,,,0.00,WUHU216HW,2013-01-22 05:41:00,
2013-01-21 21:46:00,33.3,31.4,30.46,NW,315,0.0,0.9,93,0.00,,,0.00,WUHU216HW,2013-01-22 05:46:00,
2013-01-21 21:51:00,33.3,31.4,30.46,NW,315,0.0,0.4,93,0.00,,,0.00,WUHU216HW,2013-01-22 05:51:00,
2013-01-21 21:56:00,33.3,31.4,30.46,WNW,293,0.0,0.9,93,0.00,,,0.00,WUHU216HW,2013-01-22 05:56:00,
2013-01-21 22:01:00,33.3,31.4,30.46,WNW,293,0.9,0.9,93,0.00,,,0.00,WUHU216HW,2013-01-22 06:01:00,
2013-01-21 22:06:00,33.1,31.3,30.47,North,0,0.0,0.9,93,0.00,,,0.00,WUHU216HW,2013-01-22 06:06:00,
2013-01-21 22:11:00,32.9,31.2,30.47,North,0,0.0,0.7,93,0.00,,,0.00,WUHU216HW,2013-01-22 06:11:00,
2013-01-21 22:16:00,32.8,31.0,30.46,North,0,0.0,0.4,93,0.00,,,0.00,WUHU216HW,2013-01-22 06:16:00,
2013-01-21 22:21:00,32.8,31.0,30.46,North,0,0.0,0.0,93,0.00,,,0.00,WUHU216HW,2013-01-22 06:21:00,
2013-01-21 22:26:00,32.8,31.0,30.46,WSW,248,0.0,0.4,93,0.00,,,0.00,WUHU216HW,2013-01-22 06:26:00,
2013-01-21 22:31:00,32.8,31.0,30.46,WSW,248,0.2,0.4,93,0.00,,,0.00,WUHU216HW,2013-01-22 06:31:00,
2013-01-21 22:36:00,32.8,31.0,30.45,WNW,293,0.0,0.9,93,0.00,,,0.00,WUHU216HW,2013-01-22 06:36:00,
2013-01-21 22:41:00,32.8,31.0,30.45,NNW,338,0.0,1.3,93,0.00,,,0.00,WUHU216HW,2013-01-22 06:41:00,
2013-01-21 22:46:00,32.2,30.4,30.46,NNW,338,0.0,1.3,93,0.00,,,0.00,WUHU216HW,2013-01-22 06:46:00,
2013-01-21 22:51:00,32.2,30.4,30.46,NNW,338,0.0,0.7,93,0.00,,,0.00,WUHU216HW,2013-01-22 06:51:00,
2013-01-21 22:56:00,32.2,30.4,30.46,WSW,248,0.2,0.4,93,0.00,,,0.00,WUHU216HW,2013-01-22 06:56:00,
2013-01-21 23:01:00,32.2,30.4,30.45,WSW,248,0.0,0.4,93,0.00,,,0.00,WUHU216HW,2013-01-22 07:01:00,
2013-01-21 23:06:00,32.2,30.4,30.45,WSW,248,0.0,0.2,93,0.00,,,0.00,WUHU216HW,2013-01-22 07:06:00,
2013-01-21 23:11:00,32.4,30.6,30.45,SW,225,0.0,0.0,93,0.00,,,0.00,WUHU216HW,2013-01-22 07:11:00,
2013-01-21 23:16:00,32.4,30.6,30.46,SW,225,0.0,0.4,93,0.00,,,0.00,WUHU216HW,2013-01-22 07:16:00,
2013-01-21 23:21:00,32.4,30.6,30.46,SW,225,0.0,0.4,93,0.00,,,0.00,WUHU216HW,2013-01-22 07:21:00,
2013-01-21 23:26:00,32.2,30.4,30.46,WNW,293,0.0,0.4,93,0.00,,,0.00,WUHU216HW,2013-01-22 07:26:00,
2013-01-21 23:31:00,32.0,30.2,30.46,WNW,293,0.0,0.4,93,0.00,,,0.00,WUHU216HW,2013-01-22 07:31:00,
2013-01-21 23:36:00,32.2,30.4,30.45,WNW,293,0.0,0.0,93,0.00,,,0.00,WUHU216HW,2013-01-22 07:36:00,
2013-01-21 23:41:00,32.4,30.6,30.45,WNW,293,0.0,0.0,93,0.00,,,0.00,WUHU216HW,2013-01-22 07:41:00,
2013-01-21 23:46:00,32.4,30.6,30.46,SSW,203,0.2,0.2,93,0.00,,,0.00,WUHU216HW,2013-01-22 07:46:00,
2013-01-21 23:51:00,32.4,30.6,30.45,SSW,203,0.0,0.4,93,0.00,,,0.00,WUHU216HW,2013-01-22 07:51:00,
2013-01-21 23:56:00,32.4,30.6,30.45,SSW,203,0.0,0.4,93,0.00,,,0.00,WUHU216HW,2013-01-22 07:56:00,